Regional Weather Roundup
Issued by NWS Newport/Morehead, NC

Current Version | Previous Version | Text Only | Print | Product List | Glossary On
Versions: 1 2 3 4 5 6 7 8 9 10 11 12 13 14 15 16 17 18 19 20 21 22 23 24 25 26 27 28 29 30 31 32 33 34 35 36 37 38 39 40 41 42 43 44 45 46 47 48 49 50
110 ASUS42 KMHX 251725 RWRMHX WEATHER ROUNDUP FOR EASTERN NORTH CAROLINA NATIONAL WEATHER SERVICE NEWPORT/MOREHEAD CITY NC 100 PM EDT MON JUL 25 2016 NOTE: "FAIR" INDICATES FEW OR NO CLOUDS BELOW 12,000 FEET WITH NO SIGNIFICANT WEATHER AND/OR OBSTRUCTIONS TO VISIBILITY NCZ015>017-031-032-045>047-102-103-251800- NORTH COAST CITY SKY/WX TMP DP RH WIND PRES REMARKS EDENTON SUNNY 93 73 51 SW9 30.03F HX 102 ELIZABETH CITY MOSUNNY 92 78 63 S10 30.02F HX 107 KITTY HAWK SUNNY 97 73 45 W9 30.02F HX 106 MANTEO N/A 91 75 59 W8 30.04F HX 101 $$ NCZ045>047-081-094-103-104-251800- CENTRAL COAST CITY SKY/WX TMP DP RH WIND PRES REMARKS FRISCO SUNNY 87 78 74 SW8 30.07F HX 100 $$ NCZ095-097-098-100-101-251800- SOUTHERN COAST CITY SKY/WX TMP DP RH WIND PRES REMARKS BEAUFORT SUNNY 87 78 74 SW15 30.07F HX 100 CEDAR ISLAND NOT AVBL JACKSONVILLE MOSUNNY 91 73 55 S8 30.05F PINEY ISLAND MOSUNNY N/A N/A N/A SW7 30.05 WILMINGTON PTSUNNY 90 74 59 SW8 30.06F $$ NCZ011>013-027>030-043-044-078>080-089-090>093-098-251800- COASTAL PLAIN CITY SKY/WX TMP DP RH WIND PRES REMARKS AHOSKIE SUNNY 91 77 64 S5 30.01F HX 104 CLINTON SUNNY 92 77 61 SW10 30.04F HX 105 ELIZABETHTOWN SUNNY 91 75 58 SW7 30.05F HX 101 GOLDSBORO MOSUNNY 94 77 57 SW10 30.02F HX 108 GREENVILLE MOSUNNY 93 79 62 W7 30.04F HX 110 HAVELOCK MOSUNNY 92 73 53 SW7 30.06F HX 100 KENANSVILLE NOT AVBL KINSTON MOSUNNY 93 75 55 SW12 30.04F HX 104 NEW BERN SUNNY 93 74 53 SW6 30.05F HX 103 RICHLANDS PTSUNNY 93 76 57 S7 30.05F HX 105 ROCKY MOUNT SUNNY 93 77 59 SW7 30.03F HX 107 WASHINGTON SUNNY 91 76 60 SW6 30.03F HX 102 WHITEVILLE MOSUNNY 90 74 60 W3 30.06F $$ AMZ130-135-150-152-154-156-158-170-250-252-270-ANZ085-086-088-633-658-670-251800- MARINE OBSERVATIONS STATION/POSITION TIME TEMP WIND PRES WAVE SWELL AIR SEA DIR/SP/G HT/PER HT/PER (UTC) (F) (DEG/KT/KT) (MB) (FT/S) (FT/S) CHESAPEAKE LIGHT NOT AVBL 64 E VA BEACH 1650 81 81 210/ 14/ 16 1016.5 3/ 5 2/ 9 DUCK 1700 88 62 230/ 10/ 14 1016.1 2 E DUCK 1611 73 N/A 1/ 9 OREGON INLET 1700 85 84 180/ 12/ 15 1017.3 13E OREGON INLT 1700 82 N/A 2/ 5 2/ 8 HATTERAS CG 1700 87 83 200/ 8/ 11 1017.7 DIAMOND BUOY 1650 84 86 220/ 8/ 12 1018.4 2/ 5 2/ 5 CAPE LOOKOUT 1700 87 230/ 10/ 13 1018.2 BEAUFORT LAB 1700 86 83 210/ 11/ 14 1017.6 30 SE NEW RVR IN 1708 85 85 230/ 10/ 14 1018.6 30 SE NEW RVR IN 1625 85 N/A 3/ 4 27 SE WRIGHTSVLE 1708 85 85 220/ 10/ 14 1018.8 5 SE WRIGHTSVLE NOT AVBL 225 S CAPE HAT 1650 82 85 180/ 12/ 16 1020.3 2/ 8 2/ 8 41 SE CHARLESTON 1650 85 86 210/ 6/ 8 1018.7 2/ 8 2/ 8 $$

USA.gov is the U.S. government's official web portal to all federal, state and local government web resources and services.